TimeCDT,TemperatureF,Dew PointF,Humidity,Sea Level PressureIn,VisibilityMPH,Wind Direction,Wind SpeedMPH,Gust SpeedMPH,PrecipitationIn,Events,Conditions,WindDirDegrees,DateUTC
12:14 AM,28.4,23.0,80,30.58,10.0,NW,13.8,-,N/A,,Overcast,320,2013-05-02 05:14:00
12:33 AM,28.4,23.0,80,30.58,10.0,NW,13.8,-,N/A,,Overcast,320,2013-05-02 05:33:00
12:53 AM,28.4,23.0,80,30.58,10.0,NW,11.5,-,N/A,,Overcast,310,2013-05-02 05:53:00
1:14 AM,28.4,21.2,74,30.58,10.0,NW,9.2,-,N/A,,Overcast,320,2013-05-02 06:14:00
1:33 AM,28.4,21.2,74,30.58,10.0,NW,10.4,-,N/A,,Overcast,320,2013-05-02 06:33:00
1:53 AM,28.4,21.2,74,30.58,10.0,NW,13.8,-,N/A,,Overcast,310,2013-05-02 06:53:00
2:14 AM,28.4,19.4,69,30.58,10.0,WNW,11.5,-,N/A,,Overcast,300,2013-05-02 07:14:00
2:33 AM,28.4,19.4,69,30.58,10.0,WNW,10.4,-,N/A,,Overcast,300,2013-05-02 07:33:00
2:53 AM,28.4,19.4,69,30.58,10.0,NW,9.2,-,N/A,,Overcast,310,2013-05-02 07:53:00
3:14 AM,28.4,19.4,69,30.58,10.0,NW,5.8,-,N/A,,Overcast,320,2013-05-02 08:14:00
3:33 AM,28.4,19.4,69,30.59,10.0,NW,8.1,-,N/A,,Overcast,320,2013-05-02 08:33:00
3:53 AM,28.4,21.2,74,30.58,10.0,NNW,5.8,-,N/A,,Overcast,330,2013-05-02 08:53:00
4:14 AM,28.4,21.2,74,30.59,10.0,NNW,9.2,-,N/A,,Overcast,330,2013-05-02 09:14:00
4:33 AM,26.6,21.2,80,30.60,10.0,NNW,9.2,-,N/A,,Overcast,340,2013-05-02 09:33:00
4:53 AM,26.6,21.2,80,30.60,10.0,NNW,11.5,-,N/A,,Overcast,330,2013-05-02 09:53:00
5:13 AM,26.6,21.2,80,30.60,10.0,NW,10.4,-,N/A,,Overcast,320,2013-05-02 10:13:00
5:33 AM,26.6,19.4,74,30.61,10.0,NW,9.2,-,N/A,,Overcast,320,2013-05-02 10:33:00
5:54 AM,26.6,21.2,80,30.61,10.0,NW,11.5,-,N/A,,Overcast,320,2013-05-02 10:54:00
6:13 AM,26.6,21.2,80,30.61,10.0,NNW,10.4,-,N/A,,Overcast,330,2013-05-02 11:13:00
6:33 AM,26.6,21.2,80,30.61,10.0,NNW,10.4,-,N/A,,Overcast,330,2013-05-02 11:33:00
6:54 AM,26.6,23.0,86,30.62,10.0,NNW,10.4,-,N/A,,Overcast,330,2013-05-02 11:54:00
7:13 AM,26.6,23.0,86,30.64,7.0,NW,10.4,-,N/A,,Overcast,320,2013-05-02 12:13:00
7:33 AM,26.6,24.8,93,30.64,5.0,NW,9.2,-,N/A,Snow,Light Snow,320,2013-05-02 12:33:00
8:13 AM,26.6,24.8,93,30.64,7.0,NNW,10.4,-,N/A,Snow,Light Snow,330,2013-05-02 13:13:00
8:33 AM,26.6,24.8,93,30.65,7.0,NNW,9.2,-,N/A,,Overcast,340,2013-05-02 13:33:00
8:53 AM,28.4,24.8,86,30.65,7.0,NNW,9.2,-,N/A,,Overcast,340,2013-05-02 13:53:00
9:13 AM,28.4,24.8,86,30.65,10.0,NNW,9.2,-,N/A,Snow,Light Snow,340,2013-05-02 14:13:00
9:33 AM,28.4,24.8,86,30.65,4.0,North,8.1,-,N/A,Snow,Light Snow,360,2013-05-02 14:33:00
9:54 AM,28.4,24.8,86,30.65,2.0,North,8.1,-,N/A,Snow,Light Snow,10,2013-05-02 14:54:00
10:13 AM,28.4,23.0,80,30.65,4.0,North,10.4,-,N/A,Snow,Light Snow,360,2013-05-02 15:13:00
10:33 AM,28.4,23.0,80,30.65,4.0,North,9.2,-,N/A,Snow,Light Snow,360,2013-05-02 15:33:00
10:54 AM,28.4,21.2,74,30.65,10.0,North,8.1,-,N/A,,Overcast,360,2013-05-02 15:54:00
11:33 AM,30.2,21.2,69,30.65,10.0,North,9.2,-,N/A,,Overcast,360,2013-05-02 16:33:00
11:53 AM,30.2,21.2,69,30.65,10.0,North,10.4,-,N/A,,Overcast,360,2013-05-02 16:53:00
12:13 PM,30.2,21.2,69,30.65,10.0,North,8.1,-,N/A,,Overcast,360,2013-05-02 17:13:00
12:34 PM,30.2,21.2,69,30.64,10.0,NNE,8.1,-,N/A,,Overcast,20,2013-05-02 17:34:00
12:53 PM,30.2,21.2,69,30.64,10.0,NE,5.8,-,N/A,,Overcast,50,2013-05-02 17:53:00
1:13 PM,30.2,21.2,69,30.63,10.0,North,8.1,-,N/A,,Overcast,10,2013-05-02 18:13:00
1:33 PM,30.2,21.2,69,30.63,10.0,North,8.1,-,N/A,,Overcast,10,2013-05-02 18:33:00
1:53 PM,32.0,21.2,64,30.62,10.0,NNE,6.9,-,N/A,,Overcast,20,2013-05-02 18:53:00
2:14 PM,32.0,21.2,64,30.62,10.0,NNE,6.9,-,N/A,,Overcast,30,2013-05-02 19:14:00
2:54 PM,33.8,21.2,60,30.61,10.0,NNE,4.6,-,N/A,,Overcast,30,2013-05-02 19:54:00
3:13 PM,33.8,21.2,60,30.61,10.0,NNE,8.1,-,N/A,,Overcast,20,2013-05-02 20:13:00
3:34 PM,33.8,19.4,56,30.60,10.0,NNE,9.2,-,N/A,,Overcast,30,2013-05-02 20:34:00
3:53 PM,33.8,21.2,60,30.60,10.0,NNE,6.9,-,N/A,,Overcast,30,2013-05-02 20:53:00
4:13 PM,33.8,21.2,60,30.59,10.0,North,5.8,-,N/A,,Overcast,10,2013-05-02 21:13:00
4:33 PM,33.8,19.4,56,30.59,10.0,NNE,6.9,-,N/A,,Overcast,20,2013-05-02 21:33:00
4:53 PM,33.8,21.2,60,30.58,10.0,ENE,8.1,-,N/A,,Overcast,60,2013-05-02 21:53:00
5:13 PM,33.8,21.2,60,30.58,10.0,NNE,6.9,-,N/A,,Overcast,30,2013-05-02 22:13:00
5:33 PM,33.8,21.2,60,30.58,10.0,NE,6.9,-,N/A,,Overcast,40,2013-05-02 22:33:00
5:53 PM,33.8,21.2,60,30.58,10.0,NNE,6.9,-,N/A,,Overcast,30,2013-05-02 22:53:00
6:13 PM,33.8,21.2,60,30.58,10.0,NNE,6.9,-,N/A,,Overcast,30,2013-05-02 23:13:00
6:34 PM,33.8,21.2,60,30.58,10.0,ENE,6.9,-,N/A,,Overcast,60,2013-05-02 23:34:00
6:53 PM,33.8,21.2,60,30.58,10.0,NNE,6.9,-,N/A,,Overcast,30,2013-05-02 23:53:00
7:13 PM,33.8,21.2,60,30.57,10.0,NE,8.1,-,N/A,,Overcast,40,2013-05-03 00:13:00
7:34 PM,33.8,21.2,60,30.58,10.0,NE,5.8,9.2,N/A,,Overcast,40,2013-05-03 00:34:00
7:53 PM,33.8,21.2,60,30.58,10.0,NE,6.9,-,N/A,,Overcast,50,2013-05-03 00:53:00
8:13 PM,33.8,21.2,60,30.58,10.0,ENE,5.8,-,N/A,,Overcast,60,2013-05-03 01:13:00
8:34 PM,33.8,21.2,60,30.58,10.0,NE,5.8,-,N/A,,Overcast,40,2013-05-03 01:34:00
8:53 PM,33.8,21.2,60,30.58,10.0,NE,5.8,-,N/A,,Overcast,50,2013-05-03 01:53:00
9:13 PM,33.8,21.2,60,30.58,10.0,NE,8.1,-,N/A,,Overcast,50,2013-05-03 02:13:00
9:34 PM,33.8,21.2,60,30.57,10.0,NNE,4.6,-,N/A,,Mostly Cloudy,30,2013-05-03 02:34:00
9:53 PM,33.8,21.2,60,30.57,10.0,NE,4.6,-,N/A,,Overcast,40,2013-05-03 02:53:00
10:13 PM,33.8,21.2,60,30.57,10.0,NE,3.5,-,N/A,,Overcast,50,2013-05-03 03:13:00
10:34 PM,32.0,21.2,64,30.56,10.0,Calm,Calm,-,N/A,,Overcast,0,2013-05-03 03:34:00
10:53 PM,32.0,21.2,64,30.56,10.0,Calm,Calm,-,N/A,,Overcast,0,2013-05-03 03:53:00
11:13 PM,32.0,21.2,64,30.55,10.0,Calm,Calm,-,N/A,,Overcast,0,2013-05-03 04:13:00
11:34 PM,32.0,21.2,64,30.55,10.0,ENE,3.5,-,N/A,,Mostly Cloudy,70,2013-05-03 04:34:00
11:53 PM,30.2,19.4,64,30.55,10.0,Calm,Calm,-,N/A,,Clear,0,2013-05-03 04:53:00